Location: Napa Soda Springs
(38.3907°N, 122.2794°W)
Time: 20:58:26
(UTC+00:00)

Cosmos 2026 Rocket - Pass Details

Date: 29 October 2020
Orbit: 939 x 1002 km, 82.9° (Epoch: 24 November)

Event Time Altitude Azimuth Distance (km) Brightness Sun altitude
Rises 12:57:57 0° 186° (S) 3,701 7.0 -19.1°
Reaches altitude 10° 13:00:27 10° 187° (S) 2,760 6.3 -18.6°
Maximum altitude 13:06:49 85° 276° (W) 1,011 4.0 -17.4°
Drops below altitude 10° 13:13:14 10° 6° (N) 2,776 6.4 -16.1°
Sets 13:15:46 0° 7° (N) 3,724 7.1 -15.7°
